This demonstration page uses our WeatherBlox Daily Observations layout. Learn more.

Left ArrowRight Arrow

40.92945, -100.16068

Hourly Observations for February 26, 2022

Temp ( °F °C ) Dew Point ( °F °C ) Humidity (%) Winds ( mph kmh ) Pressure ( in mb ) Visibility ( mi km ) Precip ( " mm )
12:15 am 00:15 Clear 20 -6.6 2 -16.5 46 46 S 10 17 30.55 1034 10 16 0.00 0.00
12:35 am 00:35 Clear 19 -7.2 2 -16.5 48 48 S 9 15 30.55 1035 10 16 0.00 0.00
12:55 am 00:55 Clear 18 -7.8 2 -16.6 50 50 S 8 13 30.56 1035 10 16 0.00 0.00
1:15 am 01:15 Clear 17 -8.3 2 -16.6 52 52 S 6 9 30.56 1035 10 16 0.00 0.00
1:35 am 01:35 Clear 21 -6.1 3 -16 46 46 SSW 8 13 30.54 1034 10 16 0.00 0.00
1:55 am 01:55 Clear 21 -5.9 3 -16.1 45 45 SSW 9 15 30.54 1034 10 16 0.00 0.00
2:15 am 02:15 Clear 21 -5.9 3 -16.2 44 44 SW 10 17 30.53 1034 10 16 0.00 0.00
2:35 am 02:35 Clear 21 -6.2 3 -16.2 45 45 SSW 7 11 30.53 1034 10 16 0.00 0.00
2:55 am 02:55 Clear 20 -6.5 3 -16 47 47 SW 8 13 30.53 1034 10 16 0.00 0.00
3:15 am 03:15 Clear 20 -6.7 3 -16.1 48 48 SSW 6 9 30.52 1033 10 16 0.00 0.00
3:35 am 03:35 Clear 20 -6.8 3 -16.1 48 48 SW 3 6 30.52 1033 10 16 0.00 0.00
3:55 am 03:55 Clear 19 -7 3 -16.1 49 49 SW 6 9 30.51 1033 10 16 0.00 0.00
4:15 am 04:15 Clear 16 -8.7 2 -16.8 52 52 W 3 6 30.53 1034 10 16 0.00 0.00
4:35 am 04:35 Clear 18 -8 3 -16.2 52 52 NNW 3 6 30.52 1034 10 16 0.00 0.00
4:55 am 04:55 Clear 14 -9.8 1 -17.1 56 56 WNW 3 6 30.54 1034 10 16 0.00 0.00
5:15 am 05:15 Clear 13 -10.4 1 -17.4 57 57 Calm 30.55 1034 10 16 0.00 0.00
5:35 am 05:35 Mostly Cloudy 14 -10 2 -16.7 58 58 Calm 30.54 1034 10 16 0.00 0.00
5:55 am 05:55 Partly Cloudy 10 -12.1 0 -17.9 62 62 Calm 30.57 1035 10 16 0.00 0.00
6:15 am 06:15 Clear 11 -11.8 0 -17.7 62 62 Calm 30.56 1035 10 16 0.00 0.00
6:35 am 06:35 Partly Cloudy 9 -12.6 -1 -18.1 64 64 Calm 30.57 1035 10 16 0.00 0.00
6:55 am 06:55 Partly Cloudy 11 -11.8 0 -17.7 62 62 Calm 30.56 1035 10 16 0.00 0.00
7:15 am 07:15 Mostly Cloudy 9 -12.8 -1 -18.6 62 62 Calm 30.57 1035 10 16 0.00 0.00
7:35 am 07:35 Partly Cloudy 7 -13.7 -2 -19 65 65 Calm 30.58 1036 10 16 0.00 0.00
7:55 am 07:55 Sunny 8 -13.3 -1 -18.4 66 66 Calm 30.58 1036 10 16 0.00 0.00
8:15 am 08:15 Sunny 13 -10.8 2 -16.5 63 63 Calm 30.56 1035 10 16 0.00 0.00
8:30 am 08:30 Sunny 18 -8 4 -15.6 55 55 Calm 30.53 1034 10 16 0.00 0.00
8:55 am 08:55 Sunny 22 -5.5 5 -15 48 48 Calm 30.50 1033 10 16 0.00 0.00
9:15 am 09:15 Sunny 25 -3.9 6 -14.2 45 45 W 3 6 30.50 1033 10 16 0.00 0.00
9:35 am 09:35 Sunny 29 -1.6 8 -13.2 41 41 W 9 15 30.47 1032 10 16 0.00 0.00
9:55 am 09:55 Sunny 31 -0.3 9 -12.7 39 39 W 7 11 30.46 1032 10 16 0.00 0.00
10:15 am 10:15 Sunny 33 0.3 10 -12.5 38 38 W 6 9 30.45 1031 10 16 0.00 0.00
10:35 am 10:35 Sunny 35 1.9 10 -12 35 35 W 7 11 30.43 1030 10 16 0.00 0.00
10:55 am 10:55 Sunny 37 2.9 10 -12 33 33 WSW 6 9 30.42 1030 10 16 0.00 0.00
11:15 am 11:15 Sunny 39 3.7 11 -11.8 32 32 WNW 9 15 30.41 1030 10 16 0.00 0.00
11:35 am 11:35 Sunny 40 4.3 10 -12 30 30 W 7 11 30.40 1029 10 16 0.00 0.00
11:55 am 11:55 Sunny 41 5 10 -12 28 28 WNW 10 17 30.39 1029 10 16 0.00 0.00
12:15 pm 12:15 Sunny 41 5 8 -13.2 26 26 N 7 11 30.39 1029 10 16 0.00 0.00
12:35 pm 12:35 Sunny 42 5.7 8 -13.3 24 24 W 12 19 30.37 1029 10 16 0.00 0.00
12:55 pm 12:55 Sunny 44 6.6 8 -13.5 22 22 WNW 8 13 30.35 1028 10 16 0.00 0.00
1:15 pm 13:15 Sunny 43 6.1 8 -13.5 23 23 W 9 15 30.35 1028 10 16 0.00 0.00
1:35 pm 13:35 Sunny 45 7.1 8 -13.6 21 21 WNW 12 19 30.33 1027 10 16 0.00 0.00
1:55 pm 13:55 Sunny 45 7.1 7 -13.8 21 21 NW 13 20 30.32 1027 10 16 0.00 0.00
2:15 pm 14:15 Sunny 46 7.8 8 -13.2 21 21 W 13 20 30.30 1026 10 16 0.00 0.00
2:30 pm 14:30 Sunny 46 7.7 8 -13.5 21 21 W 14 22 30.29 1026 10 16 0.00 0.00
2:55 pm 14:55 Sunny 47 8.3 4 -15.5 17 17 WNW 13 20 30.29 1026 10 16 0.00 0.00
3:15 pm 15:15 Sunny 47 8.5 2 -16.4 15 15 WNW 13 20 30.28 1025 10 16 0.00 0.00
3:35 pm 15:35 Sunny 48 8.8 3 -16.3 15 15 W 10 17 30.27 1025 10 16 0.00 0.00
3:55 pm 15:55 Sunny 48 8.7 1 -17.4 14 14 W 18 30 30.27 1025 10 16 0.00 0.00
4:15 pm 16:15 Sunny 47 8.5 1 -17.5 14 14 W 16 26 30.28 1025 10 16 0.00 0.00
4:35 pm 16:35 Sunny 47 8.5 1 -17.2 14 14 WNW 16 26 30.28 1025 10 16 0.00 0.00
4:55 pm 16:55 Sunny 47 8.1 2 -16.7 15 15 WNW 17 28 30.28 1025 10 16 0.00 0.00
5:15 pm 17:15 Sunny 46 7.7 2 -16.5 16 16 WNW 14 22 30.29 1026 10 16 0.00 0.00
5:35 pm 17:35 Sunny 45 7.2 2 -16.7 16 16 WNW 16 26 30.30 1026 10 16 0.00 0.00
5:55 pm 17:55 Sunny 43 6.1 1 -17.3 17 17 WNW 9 15 30.31 1026 10 16 0.00 0.00
6:15 pm 18:15 Sunny 38 3.4 0 -17.8 20 20 WNW 9 15 30.33 1027 10 16 0.00 0.00
6:35 pm 18:35 Clear 34 1 -1 -18.2 23 23 WNW 10 17 30.37 1028 10 16 0.00 0.00
6:55 pm 18:55 Clear 30 -0.9 -1 -18.5 25 25 WNW 8 13 30.40 1029 10 16 0.00 0.00
7:15 pm 19:15 Clear 28 -2.2 -1 -18.5 28 28 WNW 7 11 30.42 1030 10 16 0.00 0.00
7:35 pm 19:35 Clear 26 -3.1 -1 -18.1 31 31 WNW 7 11 30.43 1030 10 16 0.00 0.00
7:55 pm 19:55 Clear 27 -2.9 0 -17.6 32 32 WNW 7 11 30.44 1031 10 16 0.00 0.00
8:15 pm 20:15 Clear 19 -7.1 -1 -18.6 40 40 WNW 7 11 30.48 1032 10 16 0.00 0.00
8:35 pm 20:35 Clear 20 -6.7 -1 -18.2 40 40 NW 5 7 30.49 1032 7 11 0.00 0.00
8:55 pm 20:55 Clear 19 -7.5 -1 -18.3 42 42 NW 9 15 30.50 1033 10 16 0.00 0.00
9:15 pm 21:15 Clear 20 -6.8 1 -17.1 44 44 NW 9 15 30.50 1033 10 16 0.00 0.00
9:35 pm 21:35 Clear 20 -6.5 2 -16.8 44 44 NW 9 15 30.51 1033 10 16 0.00 0.00
9:55 pm 21:55 Clear 18 -8 1 -17 49 49 WNW 9 15 30.52 1034 10 16 0.00 0.00
10:15 pm 22:15 Clear 19 -7.5 2 -16.5 49 49 WNW 7 11 30.52 1033 10 16 0.00 0.00
10:35 pm 22:35 Clear 18 -8 2 -16.7 50 50 WNW 10 17 30.53 1034 10 16 0.00 0.00
10:55 pm 22:55 Clear 17 -8.1 2 -16.6 51 51 WNW 7 11 30.52 1034 10 16 0.00 0.00
11:15 pm 23:15 Clear 15 -9.5 2 -16.9 55 55 W 6 9 30.54 1034 10 16 0.00 0.00
11:35 pm 23:35 Clear 14 -10.1 1 -17.2 56 56 W 5 7 30.54 1034 10 16 0.00 0.00
11:55 pm 23:55 Clear 14 -10.1 1 -17 57 57 WNW 6 9 30.54 1034 10 16 0.00 0.00

Powered by AerisWeather